Location: Madrid
(40.4000°N, 3.6830°W)
Time: 03:45:31
(UTC+02:00)

ISS - Pass Details

Date: 25 May 2019
Orbit: 408 x 418 km, 51.6° (Epoch: 26 May)

Event Time Altitude Azimuth Distance (km) Brightness Sun altitude
Rises 23:22:56 0° 302° (WNW) 2,351 1.5 -17.1°
Reaches altitude 10° 23:26:07 10° 335° (NNW) 1,491 0.2 -17.5°
Maximum altitude 23:27:31 12° 360° (N) 1,372 -0.5 -17.7°
Drops below altitude 10° 23:28:55 10° 24° (NNE) 1,493 -0.6 -17.8°
Sets 23:32:06 0° 57° (ENE) 2,359 0.0 -18.2°
